Precipitable_Water
0.33 0.34 0.35 0.38 0.39 0.39 0.38 0.38 0.39 0.41 0.42 0.43 0.42 0.40 0.38 0.36 0.33 0.29 0.28 0.26 0.24 0.23 0.21 0.20 0.20 0.20 0.20 0.20 0.18 0.18 0.18 0.18 0.18 0.18 0.17 0.17 0.16 0.15 0.15 0.15 0.14 0.12 0.11 0.11 0.12 0.11 0.10 0.10 0.10 0.09 0.08 0.08 0.07 0.07 0.07 0.08 0.09 0.11 0.12 0.13 0.14 0.15 0.15
0.33 0.33 0.34 0.34 0.36 0.37 0.38 0.39 0.39 0.40 0.41 0.41 0.41 0.39 0.38 0.36 0.33 0.31 0.29 0.27 0.24 0.23 0.22 0.21 0.20 0.20 0.20 0.20 0.19 0.19 0.18 0.18 0.18 0.18 0.17 0.17 0.16 0.15 0.15 0.14 0.13 0.12 0.11 0.10 0.11 0.11 0.10 0.10 0.10 0.08 0.07 0.07 0.07 0.07 0.08 0.08 0.09 0.11 0.12 0.13 0.13 0.13 0.13
0.31 0.32 0.33 0.34 0.33 0.34 0.36 0.37 0.39 0.40 0.41 0.41 0.40 0.39 0.38 0.36 0.33 0.31 0.29 0.27 0.25 0.23 0.22 0.21 0.20 0.20 0.21 0.21 0.20 0.19 0.19 0.19 0.19 0.19 0.18 0.17 0.17 0.16 0.15 0.15 0.14 0.13 0.11 0.11 0.10 0.11 0.10 0.10 0.09 0.08 0.07 0.07 0.08 0.08 0.08 0.08 0.09 0.11 0.12 0.12 0.12 0.12 0.13
0.31 0.31 0.31 0.32 0.33 0.35 0.35 0.36 0.37 0.38 0.40 0.40 0.40 0.39 0.38 0.36 0.33 0.31 0.30 0.28 0.26 0.24 0.23 0.21 0.20 0.20 0.21 0.21 0.20 0.19 0.19 0.19 0.19 0.19 0.18 0.17 0.17 0.16 0.16 0.15 0.15 0.14 0.13 0.11 0.10 0.10 0.10 0.09 0.09 0.08 0.08 0.08 0.08 0.08 0.08 0.09 0.10 0.12 0.11 0.11 0.11 0.12 0.12
0.32 0.31 0.30 0.29 0.30 0.32 0.35 0.37 0.38 0.38 0.38 0.39 0.40 0.39 0.38 0.36 0.34 0.32 0.30 0.29 0.27 0.25 0.23 0.22 0.21 0.21 0.22 0.22 0.20 0.20 0.19 0.19 0.19 0.19 0.18 0.17 0.17 0.17 0.16 0.16 0.14 0.13 0.13 0.12 0.11 0.10 0.09 0.09 0.09 0.09 0.09 0.09 0.08 0.08 0.09 0.10 0.11 0.11 0.10 0.10 0.11 0.12 0.12
0.33 0.32 0.31 0.30 0.29 0.30 0.31 0.34 0.36 0.37 0.37 0.37 0.37 0.38 0.37 0.36 0.34 0.32 0.31 0.29 0.27 0.26 0.25 0.24 0.23 0.23 0.22 0.22 0.21 0.20 0.19 0.19 0.19 0.19 0.18 0.17 0.17 0.17 0.16 0.15 0.13 0.13 0.13 0.12 0.11 0.09 0.09 0.09 0.09 0.08 0.08 0.08 0.09 0.08 0.09 0.10 0.10 0.10 0.10 0.10 0.10 0.11 0.12
0.35 0.34 0.32 0.31 0.30 0.29 0.29 0.31 0.32 0.33 0.34 0.35 0.36 0.35 0.35 0.35 0.33 0.32 0.31 0.29 0.28 0.27 0.26 0.26 0.25 0.25 0.23 0.22 0.21 0.20 0.20 0.19 0.19 0.18 0.18 0.17 0.17 0.16 0.15 0.13 0.13 0.13 0.13 0.12 0.11 0.10 0.10 0.09 0.09 0.09 0.07 0.08 0.09 0.09 0.10 0.09 0.09 0.08 0.09 0.10 0.10 0.10 0.11
0.36 0.36 0.34 0.33 0.31 0.30 0.30 0.30 0.30 0.30 0.31 0.32 0.33 0.34 0.35 0.34 0.33 0.32 0.31 0.29 0.28 0.28 0.27 0.27 0.28 0.26 0.25 0.23 0.22 0.21 0.20 0.20 0.19 0.19 0.18 0.17 0.17 0.15 0.15 0.14 0.14 0.14 0.13 0.12 0.11 0.10 0.09 0.09 0.08 0.08 0.09 0.09 0.09 0.09 0.09 0.10 0.09 0.08 0.08 0.09 0.10 0.11 0.11
0.37 0.36 0.35 0.34 0.32 0.30 0.30 0.29 0.29 0.29 0.29 0.30 0.30 0.32 0.33 0.33 0.33 0.32 0.30 0.29 0.28 0.28 0.28 0.29 0.28 0.27 0.25 0.23 0.22 0.22 0.21 0.21 0.20 0.18 0.17 0.16 0.15 0.16 0.16 0.15 0.15 0.14 0.13 0.12 0.11 0.09 0.09 0.09 0.08 0.08 0.08 0.08 0.08 0.08 0.08 0.09 0.09 0.08 0.08 0.09 0.10 0.11 0.13
0.37 0.36 0.36 0.34 0.33 0.31 0.29 0.29 0.29 0.29 0.30 0.30 0.30 0.31 0.32 0.33 0.33 0.32 0.30 0.29 0.28 0.28 0.29 0.29 0.28 0.27 0.24 0.23 0.23 0.23 0.22 0.22 0.21 0.20 0.19 0.18 0.18 0.18 0.17 0.16 0.14 0.13 0.12 0.11 0.10 0.10 0.09 0.08 0.08 0.08 0.08 0.08 0.09 0.09 0.09 0.08 0.08 0.08 0.09 0.10 0.10 0.11 0.14
0.37 0.37 0.36 0.35 0.34 0.32 0.30 0.29 0.29 0.29 0.29 0.29 0.29 0.30 0.31 0.33 0.33 0.32 0.30 0.29 0.28 0.28 0.29 0.29 0.28 0.26 0.24 0.24 0.23 0.23 0.22 0.21 0.20 0.19 0.20 0.20 0.21 0.20 0.18 0.15 0.14 0.13 0.13 0.11 0.10 0.10 0.10 0.09 0.08 0.08 0.08 0.09 0.09 0.09 0.08 0.08 0.08 0.09 0.09 0.09 0.10 0.10 0.13
0.38 0.38 0.37 0.36 0.34 0.32 0.31 0.30 0.29 0.29 0.29 0.29 0.29 0.29 0.30 0.31 0.32 0.31 0.30 0.29 0.29 0.29 0.29 0.29 0.28 0.25 0.23 0.23 0.23 0.22 0.21 0.19 0.18 0.19 0.19 0.19 0.19 0.18 0.16 0.16 0.14 0.13 0.12 0.12 0.11 0.10 0.09 0.09 0.08 0.08 0.09 0.08 0.08 0.07 0.08 0.08 0.09 0.09 0.10 0.10 0.11 0.12 0.13
0.38 0.37 0.37 0.35 0.33 0.32 0.31 0.30 0.30 0.29 0.29 0.28 0.29 0.29 0.29 0.30 0.31 0.30 0.29 0.29 0.29 0.29 0.29 0.29 0.26 0.23 0.23 0.24 0.23 0.22 0.20 0.18 0.18 0.19 0.19 0.18 0.16 0.15 0.15 0.14 0.14 0.13 0.12 0.11 0.11 0.10 0.09 0.09 0.09 0.08 0.07 0.07 0.08 0.09 0.08 0.09 0.09 0.10 0.11 0.11 0.12 0.13 0.14
0.37 0.37 0.36 0.35 0.34 0.33 0.32 0.31 0.31 0.30 0.29 0.29 0.29 0.29 0.29 0.29 0.29 0.29 0.29 0.29 0.29 0.29 0.29 0.28 0.25 0.23 0.24 0.24 0.22 0.20 0.19 0.19 0.19 0.18 0.16 0.15 0.14 0.13 0.13 0.13 0.12 0.12 0.12 0.12 0.11 0.10 0.09 0.10 0.10 0.08 0.08 0.09 0.10 0.09 0.09 0.09 0.09 0.10 0.11 0.12 0.12 0.14 0.16
0.36 0.36 0.36 0.35 0.35 0.33 0.33 0.33 0.32 0.30 0.30 0.29 0.29 0.29 0.29 0.29 0.30 0.29 0.29 0.30 0.30 0.30 0.29 0.27 0.25 0.24 0.24 0.23 0.22 0.21 0.20 0.19 0.17 0.17 0.16 0.15 0.13 0.13 0.12 0.12 0.11 0.11 0.11 0.10 0.11 0.11 0.11 0.11 0.11 0.10 0.10 0.11 0.11 0.11 0.10 0.10 0.10 0.11 0.11 0.12 0.14 0.16 0.18
0.36 0.36 0.36 0.35 0.34 0.34 0.33 0.33 0.33 0.31 0.30 0.30 0.30 0.30 0.29 0.29 0.29 0.30 0.31 0.31 0.31 0.30 0.29 0.27 0.26 0.25 0.24 0.23 0.22 0.21 0.20 0.19 0.18 0.17 0.16 0.15 0.14 0.13 0.12 0.12 0.12 0.13 0.13 0.13 0.14 0.13 0.12 0.12 0.12 0.12 0.12 0.11 0.11 0.10 0.11 0.10 0.10 0.11 0.11 0.12 0.14 0.15 0.16
0.36 0.36 0.36 0.35 0.34 0.34 0.33 0.33 0.33 0.32 0.31 0.30 0.30 0.29 0.29 0.30 0.30 0.31 0.31 0.30 0.30 0.29 0.28 0.27 0.26 0.26 0.25 0.24 0.23 0.21 0.20 0.19 0.18 0.17 0.16 0.14 0.13 0.13 0.13 0.12 0.12 0.12 0.13 0.13 0.13 0.12 0.12 0.12 0.11 0.10 0.10 0.10 0.10 0.09 0.09 0.09 0.09 0.10 0.12 0.13 0.14 0.14 0.15
0.35 0.36 0.36 0.35 0.34 0.34 0.32 0.32 0.32 0.31 0.30 0.30 0.29 0.29 0.30 0.30 0.30 0.31 0.31 0.30 0.30 0.29 0.28 0.27 0.27 0.27 0.26 0.24 0.23 0.22 0.20 0.18 0.18 0.17 0.15 0.14 0.13 0.13 0.11 0.11 0.12 0.12 0.12 0.12 0.11 0.11 0.10 0.10 0.09 0.08 0.08 0.08 0.08 0.09 0.09 0.09 0.08 0.10 0.13 0.14 0.15 0.14 0.15
0.35 0.35 0.35 0.35 0.34 0.34 0.33 0.32 0.31 0.31 0.30 0.30 0.29 0.29 0.29 0.30 0.29 0.30 0.30 0.29 0.28 0.28 0.28 0.27 0.28 0.27 0.26 0.24 0.23 0.21 0.19 0.19 0.19 0.17 0.15 0.14 0.12 0.11 0.11 0.12 0.12 0.11 0.10 0.09 0.09 0.08 0.08 0.07 0.07 0.07 0.07 0.07 0.08 0.08 0.09 0.09 0.10 0.12 0.14 0.15 0.15 0.15 0.15
0.34 0.34 0.34 0.34 0.34 0.34 0.33 0.32 0.31 0.30 0.29 0.29 0.29 0.29 0.28 0.29 0.28 0.28 0.29 0.28 0.27 0.26 0.26 0.26 0.26 0.26 0.26 0.25 0.23 0.21 0.20 0.20 0.18 0.16 0.15 0.14 0.13 0.12 0.11 0.12 0.11 0.11 0.10 0.09 0.08 0.07 0.07 0.06 0.06 0.06 0.06 0.07 0.07 0.08 0.08 0.09 0.11 0.14 0.16 0.16 0.16 0.15 0.15
0.33 0.33 0.33 0.33 0.34 0.33 0.33 0.32 0.30 0.29 0.28 0.29 0.29 0.29 0.29 0.28 0.27 0.28 0.28 0.28 0.27 0.26 0.25 0.25 0.25 0.25 0.24 0.23 0.22 0.20 0.20 0.18 0.17 0.16 0.16 0.15 0.13 0.13 0.13 0.13 0.11 0.10 0.10 0.08 0.07 0.07 0.07 0.06 0.06 0.06 0.06 0.06 0.07 0.07 0.08 0.09 0.12 0.16 0.17 0.17 0.16 0.15 0.15
0.32 0.32 0.32 0.33 0.33 0.33 0.32 0.32 0.31 0.29 0.28 0.28 0.28 0.29 0.30 0.29 0.28 0.28 0.27 0.25 0.25 0.24 0.24 0.24 0.24 0.23 0.23 0.22 0.21 0.20 0.18 0.17 0.16 0.16 0.16 0.14 0.14 0.13 0.13 0.11 0.10 0.09 0.08 0.07 0.07 0.06 0.06 0.06 0.05 0.05 0.05 0.05 0.06 0.06 0.07 0.10 0.13 0.17 0.18 0.18 0.17 0.16 0.15
0.32 0.31 0.31 0.31 0.32 0.32 0.32 0.32 0.31 0.30 0.28 0.28 0.28 0.28 0.29 0.29 0.29 0.28 0.27 0.25 0.24 0.23 0.23 0.24 0.23 0.23 0.23 0.21 0.20 0.19 0.18 0.17 0.17 0.15 0.14 0.14 0.13 0.13 0.11 0.10 0.09 0.08 0.07 0.07 0.07 0.06 0.05 0.05 0.05 0.05 0.05 0.05 0.05 0.06 0.08 0.10 0.14 0.17 0.18 0.18 0.18 0.18 0.17
0.31 0.31 0.30 0.30 0.31 0.31 0.32 0.31 0.31 0.31 0.30 0.29 0.28 0.28 0.28 0.28 0.29 0.29 0.28 0.27 0.24 0.24 0.24 0.24 0.24 0.23 0.22 0.21 0.19 0.18 0.18 0.17 0.16 0.14 0.13 0.13 0.12 0.11 0.10 0.09 0.08 0.08 0.07 0.07 0.06 0.06 0.05 0.05 0.05 0.05 0.05 0.05 0.05 0.06 0.08 0.11 0.14 0.17 0.18 0.18 0.18 0.18 0.18
0.31 0.30 0.30 0.30 0.30 0.30 0.31 0.31 0.31 0.30 0.30 0.29 0.28 0.28 0.28 0.28 0.29 0.29 0.28 0.27 0.25 0.25 0.25 0.25 0.24 0.24 0.22 0.20 0.19 0.19 0.17 0.16 0.14 0.13 0.12 0.12 0.11 0.10 0.09 0.08 0.08 0.08 0.07 0.07 0.06 0.06 0.06 0.05 0.05 0.05 0.05 0.05 0.05 0.07 0.08 0.10 0.14 0.18 0.18 0.18 0.18 0.18 0.18
0.30 0.30 0.30 0.29 0.30 0.30 0.30 0.31 0.31 0.29 0.28 0.29 0.28 0.28 0.28 0.28 0.28 0.28 0.29 0.27 0.25 0.25 0.26 0.26 0.25 0.23 0.21 0.20 0.18 0.16 0.15 0.14 0.13 0.12 0.12 0.11 0.10 0.09 0.09 0.09 0.08 0.08 0.07 0.07 0.07 0.06 0.06 0.06 0.06 0.05 0.05 0.05 0.05 0.06 0.07 0.09 0.13 0.17 0.18 0.18 0.18 0.17 0.17
0.29 0.29 0.29 0.29 0.29 0.29 0.29 0.30 0.30 0.29 0.28 0.27 0.28 0.28 0.27 0.27 0.27 0.28 0.28 0.27 0.26 0.26 0.26 0.25 0.25 0.23 0.20 0.18 0.17 0.16 0.15 0.13 0.12 0.11 0.10 0.10 0.10 0.10 0.09 0.09 0.09 0.08 0.08 0.07 0.07 0.07 0.06 0.06 0.06 0.06 0.05 0.05 0.05 0.05 0.06 0.09 0.12 0.16 0.17 0.18 0.18 0.17 0.17
0.27 0.27 0.27 0.28 0.28 0.28 0.28 0.28 0.28 0.28 0.27 0.27 0.27 0.27 0.26 0.26 0.27 0.27 0.27 0.26 0.26 0.25 0.25 0.25 0.24 0.21 0.19 0.17 0.16 0.14 0.13 0.11 0.11 0.10 0.10 0.10 0.10 0.10 0.09 0.09 0.09 0.09 0.08 0.08 0.07 0.07 0.07 0.06 0.06 0.05 0.05 0.05 0.05 0.05 0.06 0.08 0.11 0.14 0.17 0.18 0.17 0.17 0.16
0.28 0.27 0.27 0.27 0.27 0.27 0.27 0.27 0.27 0.27 0.28 0.28 0.27 0.27 0.26 0.25 0.26 0.26 0.26 0.27 0.26 0.24 0.24 0.24 0.22 0.19 0.17 0.16 0.14 0.12 0.11 0.11 0.10 0.10 0.10 0.10 0.10 0.09 0.09 0.09 0.08 0.08 0.08 0.08 0.07 0.07 0.06 0.06 0.06 0.05 0.05 0.05 0.05 0.05 0.05 0.07 0.09 0.13 0.16 0.17 0.17 0.16 0.16
0.29 0.29 0.28 0.28 0.28 0.28 0.27 0.26 0.27 0.28 0.29 0.28 0.28 0.28 0.27 0.26 0.26 0.26 0.27 0.27 0.26 0.25 0.23 0.22 0.20 0.18 0.16 0.14 0.13 0.12 0.11 0.10 0.10 0.10 0.10 0.10 0.10 0.09 0.09 0.09 0.09 0.08 0.08 0.08 0.07 0.07 0.06 0.06 0.06 0.05 0.05 0.05 0.05 0.05 0.05 0.06 0.07 0.10 0.14 0.16 0.17 0.17 0.16
0.31 0.30 0.29 0.28 0.28 0.29 0.29 0.28 0.28 0.28 0.28 0.28 0.28 0.28 0.27 0.27 0.27 0.27 0.27 0.27 0.25 0.24 0.23 0.21 0.19 0.17 0.15 0.14 0.12 0.11 0.11 0.10 0.10 0.10 0.10 0.10 0.10 0.09 0.09 0.09 0.09 0.09 0.08 0.08 0.07 0.07 0.07 0.06 0.06 0.05 0.05 0.05 0.05 0.05 0.05 0.05 0.06 0.08 0.11 0.14 0.16 0.17 0.16
0.31 0.31 0.30 0.30 0.29 0.28 0.28 0.28 0.28 0.28 0.28 0.28 0.28 0.27 0.27 0.27 0.27 0.27 0.27 0.26 0.25 0.23 0.22 0.21 0.18 0.16 0.14 0.13 0.12 0.11 0.11 0.10 0.10 0.10 0.10 0.10 0.09 0.09 0.09 0.09 0.09 0.09 0.08 0.08 0.07 0.07 0.07 0.06 0.06 0.06 0.05 0.05 0.05 0.05 0.05 0.05 0.05 0.06 0.08 0.11 0.14 0.16 0.16
0.31 0.31 0.30 0.30 0.29 0.29 0.28 0.28 0.28 0.28 0.28 0.28 0.27 0.27 0.27 0.27 0.27 0.27 0.27 0.26 0.24 0.23 0.22 0.20 0.18 0.15 0.14 0.12 0.11 0.11 0.11 0.10 0.10 0.10 0.10 0.10 0.09 0.09 0.09 0.09 0.09 0.09 0.08 0.08 0.08 0.07 0.07 0.06 0.06 0.06 0.06 0.05 0.05 0.05 0.05 0.05 0.05 0.06 0.07 0.09 0.11 0.14 0.15
0.29 0.29 0.29 0.29 0.29 0.29 0.28 0.28 0.28 0.28 0.28 0.28 0.28 0.27 0.27 0.26 0.27 0.27 0.27 0.25 0.23 0.23 0.21 0.19 0.17 0.15 0.13 0.12 0.12 0.11 0.11 0.11 0.10 0.10 0.10 0.10 0.10 0.10 0.09 0.09 0.09 0.09 0.08 0.08 0.08 0.07 0.07 0.07 0.06 0.06 0.06 0.06 0.05 0.05 0.05 0.05 0.05 0.06 0.06 0.07 0.09 0.11 0.13
0.27 0.27 0.28 0.28 0.29 0.30 0.29 0.28 0.27 0.27 0.28 0.28 0.28 0.27 0.27 0.27 0.26 0.25 0.25 0.24 0.23 0.22 0.21 0.18 0.16 0.14 0.13 0.12 0.11 0.11 0.11 0.11 0.10 0.10 0.10 0.10 0.10 0.10 0.09 0.09 0.09 0.09 0.09 0.08 0.08 0.08 0.07 0.07 0.07 0.06 0.06 0.06 0.06 0.05 0.05 0.05 0.05 0.05 0.06 0.07 0.07 0.09 0.10
0.26 0.26 0.26 0.28 0.29 0.30 0.29 0.29 0.28 0.28 0.28 0.27 0.27 0.27 0.27 0.25 0.24 0.24 0.23 0.22 0.22 0.22 0.20 0.17 0.15 0.14 0.13 0.12 0.12 0.11 0.11 0.11 0.11 0.10 0.10 0.10 0.10 0.10 0.09 0.09 0.09 0.09 0.09 0.08 0.08 0.08 0.07 0.07 0.07 0.07 0.07 0.06 0.06 0.06 0.06 0.05 0.05 0.05 0.06 0.06 0.07 0.08 0.09
Wind_Speed
37 36 36 36 36 36 36 36 36 36 36 37 36 35 34 34 34 36 36 36 36 36 36 36 35 34 33 33 32 32 32 32 32 32 32 33 34 34 35 36 37 39 41 40 40 43 44 44 46 46 45 46 45 44 43 42 40 38 36 34 34 35 35
37 37 36 35 35 36 36 36 36 36 36 36 37 36 35 34 35 35 36 36 36 36 36 36 35 34 33 33 33 33 33 32 32 33 33 33 34 35 35 36 38 39 41 41 41 43 44 45 45 46 45 45 45 43 42 40 38 36 34 33 33 34 35
37 37 37 36 35 36 36 37 36 36 36 36 36 36 35 34 35 35 36 36 36 36 36 36 35 34 34 33 33 33 33 33 33 33 34 34 35 36 36 37 38 39 40 42 42 43 44 45 45 45 45 44 43 43 41 39 37 34 32 32 34 34 34
37 37 36 36 36 35 36 36 36 36 36 36 36 36 35 34 34 35 35 36 36 37 37 37 36 35 34 34 34 34 33 33 33 33 34 35 36 36 37 37 38 39 40 41 42 43 44 45 45 44 44 43 43 42 40 37 35 32 32 33 34 34 34
37 37 36 35 36 36 36 37 37 37 37 37 37 37 36 35 35 35 35 35 36 36 37 37 36 35 35 34 34 34 33 33 33 34 34 35 36 36 37 37 37 38 40 41 42 43 44 44 44 44 43 43 42 41 38 36 33 32 33 33 33 33 34
37 36 36 35 35 36 36 36 37 37 37 37 37 37 36 36 35 34 35 35 35 36 37 37 36 35 35 34 34 34 34 33 33 34 35 36 36 37 36 36 37 38 39 41 42 43 43 43 43 43 43 42 41 39 37 35 34 33 33 33 34 34 34
37 36 36 36 35 35 36 36 36 36 36 37 37 37 37 37 36 35 34 34 35 35 36 36 36 36 35 34 34 34 34 33 34 35 35 36 36 36 36 36 37 37 38 40 41 42 42 43 42 42 42 42 40 38 35 34 34 34 33 34 34 34 34
37 36 36 35 35 35 35 36 35 35 35 36 37 37 38 38 37 35 34 34 34 34 34 35 35 35 35 34 34 34 33 34 34 35 35 36 36 35 35 35 36 37 37 39 40 40 41 42 41 40 41 41 39 36 34 34 35 35 35 35 34 34 35
37 37 36 35 35 35 36 36 36 36 36 36 37 38 39 38 37 36 34 34 34 33 33 34 34 34 34 34 34 33 34 34 34 35 35 35 35 34 34 35 35 36 36 38 38 39 40 40 39 39 40 39 37 35 35 36 36 36 36 35 35 35 35
38 38 37 37 36 36 36 36 37 37 37 37 37 38 39 39 38 36 35 34 33 33 33 33 33 33 33 33 33 33 33 34 34 34 34 34 34 33 33 33 34 35 36 37 37 38 39 39 39 39 39 38 38 37 37 36 35 35 35 34 35 35 35
38 38 38 37 37 37 37 37 37 37 37 37 38 38 38 39 38 37 35 34 33 32 32 32 33 32 32 32 32 32 32 33 34 34 34 34 33 33 33 34 34 35 36 36 36 37 37 38 39 40 39 39 39 39 38 36 34 34 34 33 33 35 35
38 37 37 37 37 37 36 36 36 37 37 38 38 38 38 38 38 37 35 34 32 31 31 31 32 31 31 30 30 30 31 32 32 32 32 33 33 33 34 35 35 35 36 37 37 37 37 38 39 39 39 39 40 39 37 35 33 33 33 33 34 35 36
38 37 36 36 37 37 36 36 36 36 37 37 37 37 37 36 37 37 35 33 32 31 31 30 30 29 29 29 29 29 29 29 30 30 31 32 32 33 33 34 35 36 37 37 37 37 38 38 39 40 40 40 40 39 36 34 33 33 33 34 35 36 39
38 37 36 35 36 36 35 35 35 36 36 35 35 35 35 35 35 36 34 33 32 31 30 29 29 29 29 28 28 28 28 28 28 29 30 31 31 31 32 33 34 36 36 37 37 38 38 38 39 41 41 40 39 38 35 33 33 33 34 35 37 39 41
35 35 35 35 34 34 34 34 34 35 35 34 33 32 32 33 34 34 32 31 31 30 29 29 28 28 28 27 26 26 27 27 27 28 29 29 30 30 31 32 33 34 35 36 36 36 37 38 39 40 39 38 38 37 35 34 33 34 36 37 38 40 41
32 32 33 33 32 31 32 32 33 33 33 32 31 30 30 31 32 32 31 30 30 29 28 27 27 27 26 26 26 26 26 26 27 27 28 28 29 29 30 31 32 34 35 35 35 36 37 38 39 38 38 39 38 37 35 34 34 35 35 36 37 38 40
30 29 30 30 30 30 30 30 31 31 31 30 30 29 28 29 30 30 29 29 29 28 27 27 26 26 25 25 25 25 26 26 26 27 27 27 27 28 29 31 32 33 34 35 36 37 37 38 38 39 39 39 38 37 34 33 33 33 33 34 35 37 38
27 27 27 28 28 29 29 28 28 29 28 28 28 27 27 28 29 29 28 28 27 27 26 26 26 26 25 25 25 25 25 25 26 26 26 26 26 27 29 30 31 32 33 34 35 35 36 37 38 38 38 38 37 36 33 32 32 32 32 33 34 36 37
25 25 25 26 26 27 27 26 26 26 26 26 27 26 26 27 28 28 27 26 26 26 26 26 26 26 25 24 24 24 24 24 25 25 25 25 26 27 28 30 31 32 32 33 33 34 35 36 36 36 36 36 36 34 32 30 31 31 32 32 34 35 35
23 23 23 23 23 24 25 24 24 24 25 25 25 26 25 25 27 27 26 26 25 25 25 25 25 25 25 24 23 23 23 24 24 25 24 24 24 26 27 29 30 30 31 31 33 34 34 35 35 35 35 35 34 32 30 30 30 30 31 32 33 34 33
21 22 22 21 21 22 22 22 22 23 23 24 24 24 24 25 25 26 26 26 26 25 24 25 25 24 24 23 23 22 22 23 24 23 22 22 23 25 27 27 28 29 30 31 32 33 33 34 34 34 34 34 33 31 29 29 30 30 30 31 32 33 32
20 21 20 20 20 20 21 21 21 21 22 22 23 23 23 23 24 25 25 24 25 24 24 24 24 23 22 22 21 21 21 22 22 22 21 22 23 25 26 26 27 28 29 30 30 31 32 33 33 33 33 33 32 30 28 28 29 29 29 30 31 31 30
19 19 20 19 19 20 20 20 20 20 20 21 21 22 22 22 23 23 24 23 23 23 23 22 22 21 20 20 19 20 20 20 20 20 20 21 22 23 24 25 26 27 27 28 29 30 31 31 32 32 32 32 31 29 28 27 28 28 29 30 31 31 29
18 18 18 19 19 19 19 19 19 19 19 20 20 21 21 22 22 22 23 23 23 22 21 21 20 20 19 19 19 19 18 18 18 19 19 20 21 22 23 24 24 25 25 26 27 28 30 30 31 31 31 31 30 28 26 26 27 27 27 28 30 30 28
17 17 18 18 18 19 19 19 18 18 19 19 20 20 20 21 22 22 22 22 22 22 21 20 19 19 18 18 17 17 16 17 17 17 18 18 19 20 21 22 22 23 24 25 26 27 29 30 30 31 31 30 29 27 25 25 26 26 27 27 29 28 26
17 17 18 18 19 18 18 19 19 19 18 18 18 18 19 20 21 21 21 21 21 21 20 19 19 18 17 17 16 16 16 16 16 16 16 17 18 18 19 20 21 22 23 24 25 27 28 29 30 30 30 29 28 26 23 24 25 25 26 27 27 27 25
17 18 18 18 18 18 18 18 19 18 18 18 18 18 18 19 20 20 20 20 20 19 18 18 17 17 16 15 14 14 15 15 15 15 15 16 16 17 18 19 20 20 21 23 24 26 27 28 28 29 29 29 28 25 22 22 23 24 25 26 26 26 24
16 18 18 18 18 18 18 18 18 18 18 18 18 18 18 18 19 19 19 19 19 18 17 17 16 15 15 14 14 14 14 14 14 14 14 14 15 16 16 17 19 19 20 22 24 25 26 27 28 28 29 28 27 25 22 21 22 22 23 24 25 25 23
16 17 18 18 18 18 18 18 18 19 18 18 18 17 17 18 19 18 18 19 19 18 16 15 14 14 14 13 13 13 13 13 12 12 12 13 14 14 15 16 18 19 20 22 23 24 26 26 27 27 28 28 27 25 22 21 21 21 22 23 23 24 23
16 17 17 17 18 18 19 19 19 18 18 18 18 17 17 17 18 18 18 19 19 17 16 15 14 14 14 13 13 13 12 12 11 11 11 12 13 13 14 16 17 18 19 21 22 24 25 25 26 26 27 27 27 25 23 21 20 20 21 22 22 23 23
16 17 17 18 18 18 19 18 18 17 18 18 17 17 17 17 18 18 18 19 18 17 16 15 14 14 14 13 13 12 11 11 11 10 10 11 12 12 14 15 16 17 19 20 22 23 24 24 25 25 26 26 26 25 23 21 20 19 20 20 21 22 22
14 15 17 18 18 17 17 17 17 17 17 17 17 17 17 17 17 18 19 19 18 17 16 15 15 14 14 13 12 12 11 10 10 9 9 10 11 12 13 14 15 17 18 20 21 22 23 24 24 25 25 25 25 24 23 21 20 19 19 20 20 20 21
12 13 15 16 18 18 17 16 17 17 17 17 17 17 17 17 17 17 18 19 18 16 16 15 15 14 14 13 12 11 10 10 9 8 9 9 10 11 12 13 14 16 18 19 21 21 22 23 23 23 24 24 24 24 23 21 20 19 19 19 19 19 20
11 12 13 14 16 17 17 16 15 16 16 17 17 18 18 17 16 17 17 18 17 16 15 15 15 14 13 12 11 10 10 9 8 8 8 9 9 10 11 12 14 15 17 18 20 21 21 22 22 22 23 23 23 23 23 21 20 18 18 18 19 19 19
11 11 12 13 14 16 16 15 14 15 16 17 17 17 17 17 16 16 16 16 15 15 15 15 15 14 13 12 11 10 9 8 8 7 8 8 9 9 11 12 13 15 16 18 19 20 20 21 21 21 22 22 22 23 23 22 20 19 17 17 18 18 18
9 9 10 11 11 12 13 13 13 14 15 16 16 16 17 16 16 15 15 14 14 15 15 15 14 13 12 12 11 10 9 8 7 7 7 8 8 9 10 11 13 14 16 17 18 19 19 20 20 21 21 21 21 21 22 22 21 19 17 16 16 16 17
Wind_Direction
267 266 264 264 263 262 262 260 259 260 259 258 257 258 257 257 257 258 258 258 259 261 263 263 264 266 268 270 272 276 279 281 283 285 287 289 292 293 295 297 299 300 303 305 307 309 310 311 312 312 312 311 310 309 307 305 302 298 294 290 289 291 293
267 265 264 264 263 262 261 259 259 259 260 259 258 258 257 257 257 257 258 258 259 260 261 262 263 265 267 269 271 275 278 280 282 284 287 289 292 293 295 297 299 300 303 305 308 309 310 312 313 313 313 312 311 311 309 306 303 299 294 290 290 292 293
267 266 265 265 264 262 260 259 258 259 260 260 259 258 257 257 257 257 257 258 259 259 260 261 262 264 266 268 271 274 277 280 282 284 286 289 291 294 295 297 298 300 302 305 308 310 311 312 313 313 313 313 312 312 310 307 304 299 294 292 292 293 293
267 267 267 265 263 262 260 258 258 259 259 260 259 258 257 257 257 257 257 258 259 259 259 260 261 263 266 269 271 274 277 279 281 284 287 289 291 293 295 297 298 300 302 305 308 310 311 312 313 313 314 314 313 312 310 307 304 299 296 294 294 294 294
267 267 267 265 263 261 260 258 258 258 259 260 259 258 257 257 257 257 258 259 259 259 259 259 260 263 266 269 271 273 276 278 281 284 287 289 291 293 295 297 299 300 302 305 308 309 311 312 313 313 314 314 314 313 311 307 303 299 298 297 295 295 295
265 265 265 264 262 261 260 258 258 258 259 260 259 258 257 257 257 257 258 259 259 260 259 259 261 263 265 268 270 272 276 278 281 284 287 289 291 293 295 296 299 301 303 305 307 309 311 312 313 313 314 314 314 313 310 306 303 300 299 298 297 296 295
263 263 263 263 262 261 260 258 258 258 259 259 259 258 258 257 256 257 258 259 259 260 261 261 261 262 264 266 268 272 275 278 281 284 286 289 291 292 294 297 300 301 303 305 307 309 310 312 313 313 313 314 314 312 308 306 304 301 300 299 298 297 297
260 261 262 262 262 262 260 259 258 258 260 260 259 258 257 256 255 255 257 259 260 260 261 262 262 262 263 266 268 272 275 278 281 284 286 289 290 291 294 297 300 301 303 305 307 308 310 312 313 313 313 314 314 311 308 306 304 301 300 300 299 298 298
259 260 261 261 262 262 261 260 260 260 261 262 260 258 256 255 254 254 255 258 259 260 261 262 262 261 263 266 269 272 275 278 280 283 286 288 289 291 294 297 299 301 303 305 307 308 310 311 313 313 313 314 313 311 308 306 304 301 300 300 299 298 299
258 258 259 260 261 262 261 261 262 262 261 262 262 259 255 254 253 252 253 256 258 260 261 262 262 261 263 266 269 272 275 277 280 283 285 286 288 291 294 296 299 301 303 305 307 308 309 311 312 312 312 313 312 311 308 306 304 301 301 301 300 300 300
257 257 258 259 260 260 260 261 262 261 261 262 262 258 254 252 251 250 251 254 257 259 261 261 261 261 263 267 270 273 275 278 280 282 284 285 288 291 293 296 299 301 303 305 307 308 310 311 312 312 312 312 312 311 308 305 303 302 302 302 302 302 302
255 256 256 257 259 259 260 261 260 261 262 263 261 256 253 251 250 249 250 252 255 259 261 260 260 261 264 268 271 274 276 278 280 282 283 285 288 290 292 295 298 301 304 305 307 308 309 310 312 313 313 313 313 312 309 305 303 302 302 302 302 301 301
253 255 256 256 257 258 259 260 260 260 262 263 260 254 251 250 248 247 248 250 253 257 259 259 259 262 265 268 270 274 276 278 280 282 284 286 289 291 293 296 298 300 303 305 306 308 309 310 312 313 314 314 314 312 309 305 303 302 302 301 301 301 302
252 253 254 255 255 256 258 259 260 261 262 262 258 252 249 249 247 245 246 248 251 254 257 258 259 261 264 267 271 274 276 278 280 283 286 288 291 293 295 297 299 301 303 304 306 308 310 311 312 313 315 315 314 311 308 305 303 303 303 302 302 303 303
252 252 253 254 255 256 258 259 259 260 261 260 255 250 248 247 245 244 244 246 249 252 256 257 258 260 263 268 272 274 275 278 281 284 287 289 292 294 297 299 301 303 304 306 307 309 310 311 313 314 315 315 314 311 308 306 305 304 303 303 304 305 305
252 253 253 254 254 254 257 259 259 259 259 256 252 249 247 245 243 242 242 244 247 250 253 255 257 260 264 268 272 274 275 277 281 284 287 289 292 295 298 300 302 304 305 307 308 309 310 312 313 314 315 315 314 312 309 308 306 305 305 305 307 308 309
253 253 253 253 252 253 256 259 259 259 257 253 250 248 246 243 240 239 241 244 246 249 251 253 256 261 265 269 272 273 274 277 281 284 287 290 293 296 298 301 303 306 307 308 309 310 311 312 314 315 316 316 315 313 311 309 307 306 307 308 310 311 312
252 253 253 252 251 253 256 259 259 257 254 250 248 247 246 242 239 238 240 243 246 248 250 252 256 261 266 269 271 272 274 277 281 284 287 290 294 296 299 302 305 308 309 310 311 312 313 314 315 317 317 317 316 314 311 309 308 308 310 311 312 314 315
251 252 253 252 252 252 254 256 256 254 251 249 247 245 244 242 239 238 239 242 245 248 250 253 257 261 264 267 269 271 274 277 281 285 288 291 294 296 299 303 307 309 311 312 313 314 315 316 318 319 319 319 317 315 312 310 310 311 312 313 314 315 316
249 250 250 250 250 250 251 253 253 252 250 249 246 244 242 240 239 238 239 241 244 247 250 254 258 261 262 265 268 270 273 277 281 285 288 290 293 297 301 305 308 311 313 315 315 316 317 318 320 320 321 321 319 317 314 313 314 314 314 314 315 316 317
248 247 247 247 247 249 250 251 252 251 250 248 246 243 240 239 238 238 239 241 244 247 250 253 258 261 262 264 266 269 273 278 282 285 287 290 294 298 303 307 310 313 315 316 316 318 319 321 322 323 323 323 321 319 317 316 316 317 316 316 317 318 318
247 245 245 245 247 249 251 251 251 251 250 247 245 243 240 239 238 236 238 241 244 246 250 253 257 260 261 262 264 268 273 278 282 284 287 291 296 300 305 309 312 314 316 318 319 321 322 324 325 325 324 324 323 321 319 318 319 319 319 319 319 319 318
247 245 245 245 246 249 251 251 251 251 249 246 244 243 241 240 238 235 237 241 244 245 249 253 256 259 258 259 263 268 274 279 282 285 289 293 298 303 307 311 314 316 319 321 322 324 326 327 328 328 327 327 326 323 321 320 321 323 323 323 324 322 319
246 245 245 245 247 248 250 251 252 250 248 245 244 243 241 240 238 235 236 240 243 245 248 252 255 256 255 258 263 269 274 279 282 286 291 295 300 306 310 313 316 319 322 324 326 327 329 330 331 331 331 330 329 325 323 322 323 326 327 327 328 326 323
245 245 245 245 247 248 249 250 251 251 249 246 243 241 240 240 238 235 235 239 243 245 248 251 252 252 253 257 263 269 274 279 283 286 291 296 302 308 311 314 319 322 325 327 328 330 332 333 335 335 334 333 331 328 325 325 327 329 332 333 333 332 330
245 246 246 246 247 247 248 249 250 251 251 248 244 242 240 239 238 235 234 237 241 242 245 247 248 250 253 257 263 270 274 278 282 286 291 298 304 309 313 317 321 324 327 329 331 332 334 336 338 338 338 337 336 332 329 329 330 333 336 338 339 339 338
247 248 249 249 248 246 247 247 247 249 250 249 247 246 242 239 238 235 233 235 239 240 242 244 246 248 251 255 262 269 273 277 282 286 291 298 305 309 314 318 323 326 329 331 333 334 336 338 340 341 342 342 341 338 334 333 334 336 339 342 343 344 344
250 249 250 250 247 245 245 245 244 246 248 248 247 246 243 238 236 235 233 233 235 237 239 243 245 247 249 254 261 267 272 277 281 285 291 298 305 310 315 320 324 327 330 333 335 336 338 340 342 344 345 346 345 343 340 338 337 339 342 345 347 349 350
252 251 250 249 246 243 243 243 243 245 246 246 245 245 243 237 233 232 230 227 229 233 237 241 244 245 247 253 258 264 269 274 277 282 290 299 306 311 316 321 325 329 332 336 338 339 340 343 345 347 348 348 348 347 345 343 342 342 344 348 352 354 356
253 251 249 247 245 243 242 243 244 244 242 242 242 242 241 236 230 227 224 222 225 231 236 239 242 243 245 250 255 259 264 268 271 278 289 299 306 311 317 322 326 330 335 338 340 341 343 345 347 349 350 351 351 351 350 349 347 346 347 351 355 359 1
256 251 247 244 243 243 242 241 242 241 239 239 239 238 237 233 227 223 220 220 224 231 235 238 240 241 244 248 252 256 259 261 266 276 288 298 305 311 317 323 327 332 337 340 341 343 345 348 350 351 352 353 353 354 354 353 352 351 351 353 357 1 3
262 254 247 243 241 241 241 240 238 238 238 237 236 235 233 229 225 221 219 221 226 232 235 236 237 239 242 246 248 251 253 256 263 276 287 296 304 312 318 323 328 334 338 341 342 344 347 349 352 353 354 355 356 356 356 356 357 357 355 355 358 1 4
270 259 251 245 240 238 238 238 237 237 236 235 234 232 229 226 223 219 218 223 228 233 235 235 235 236 239 242 244 245 247 253 262 275 287 295 304 312 317 322 329 335 339 342 344 346 349 351 353 354 356 357 358 359 359 359 359 359 359 358 359 2 5
279 264 255 249 242 237 237 238 237 236 234 231 230 227 224 221 219 218 219 224 228 230 232 232 232 233 235 237 237 238 241 250 261 273 285 295 303 311 317 324 331 336 340 343 345 347 350 353 355 356 357 359 360 1 2 2 2 2 2 1 1 3 6
290 272 260 253 246 239 236 237 236 233 228 225 224 221 217 216 217 218 220 224 226 228 228 227 227 228 230 230 231 233 238 247 259 271 284 295 303 311 319 326 331 336 340 343 345 348 351 353 356 357 359 360 1 2 3 4 4 4 4 4 3 4 5
307 286 267 257 247 235 229 228 230 226 220 218 216 213 211 213 215 215 216 220 223 224 224 224 224 224 225 224 225 230 236 245 257 270 282 293 302 311 320 326 331 336 340 343 346 349 351 354 356 358 359 1 2 3 4 4 5 6 6 6 6 6 6